This is the latest recevied weather packets stored in our database for station/object VE3DVC. If no packets are shown the sender has not sent any weather packets the latest 10 day(s).
| Time | Temp. | Humidity | Pressure | Rain* | Wind** | Luminosity | Snow |
|---|---|---|---|---|---|---|---|
| 1788458273 | 27.22° C | 87% | 1014 hPa | 0 mm | - | - | - |
| 1788457553 | 27.22° C | 87% | 1014.1 hPa | 0 mm | - | - | - |
| 1788456833 | 26.67° C | 89% | 1013.9 hPa | 0 mm | - | - | - |
| 1788456112 | 26.67° C | 91% | 1013.9 hPa | 0 mm | - | - | - |
| 1788455392 | 26.11° C | 92% | 1013.9 hPa | 0 mm | - | - | - |
| 1788454673 | 25° C | 92% | 1014.2 hPa | 0 mm | - | - | - |
| 1788453193 | 24.44° C | 90% | 1014.5 hPa | 0 mm | - | - | - |
| 1788452473 | 23.89° C | 90% | 1014.5 hPa | 0 mm | - | - | - |
| 1788451265 | 23.89° C | 90% | 1014.3 hPa | 0 mm | - | - | - |
| 1788450544 | 23.89° C | 90% | 1014.2 hPa | 0 mm | - | - | - |
| 1788449824 | 23.33° C | 90% | 1014.1 hPa | 0 mm | - | - | - |
| 1788449105 | 23.33° C | 90% | 1014.2 hPa | 0 mm | - | - | - |
| 1788448385 | 23.33° C | 90% | 1014.2 hPa | 0 mm | - | - | - |
| 1788447664 | 23.33° C | 90% | 1014.3 hPa | 0 mm | - | - | - |
| 1788446944 | 22.78° C | 90% | 1014.3 hPa | 0 mm | - | - | - |
| 1788446224 | 22.78° C | 91% | 1014.5 hPa | 0 mm | - | - | - |
| 1788445504 | 22.22° C | 90% | 1014.5 hPa | 0 mm | - | - | - |
| 1788444784 | 22.22° C | 91% | 1014.5 hPa | 0 mm | - | - | - |
| 1788444064 | 22.22° C | 90% | 1014.3 hPa | 0 mm | - | - | - |
| 1788443344 | 22.22° C | 91% | 1014.4 hPa | 0 mm | - | - | - |
| 1788442625 | 21.67° C | 91% | 1014.6 hPa | 0 mm | - | - | - |
| 1788441904 | 21.67° C | 91% | 1014.6 hPa | 0 mm | - | - | - |
| 1788441185 | 21.11° C | 91% | 1014.8 hPa | 0 mm | - | - | - |
| 1788440464 | 21.11° C | 91% | 1014.8 hPa | 0 mm | - | - | - |
| 1788439744 | 21.11° C | 91% | 1014.7 hPa | 0 mm | - | - | - |
* Rain latest hour (hover to see other rain measurements)
** Current wind speed in m/s (hover to see current wind gust speed)